P/2016 P2 ( PanSTARRS )

Japanese version
Home page
Updated on November 13, 2016

---------------------------------------------------------------------

* Profile

Discovery Date August 8, 2016
Magnitude 21.0 mag
Discoverer Pan-STARRS 1 telescope (Haleakala)

* Pictures

* Orbital Elements

Epoch 2015 Dec. 4.0 TT = JDT 2457360.5
T 2015 Nov. 16.62116 TT                                 MPCW
q   3.1215771            (2000.0)            P               Q
n   0.10568479     Peri.  352.34219     +0.10507749     +0.97089106
a   4.4305847      Node   283.50427     -0.90026782     +0.00092208
e   0.2954481      Incl.   12.78907     -0.42246487     +0.23951974
P   9.33
From 40 observations 2016 July 9-Aug. 30, mean residual 0".5.

* Magnitudes Graph

        m1 = 12.5 + 5 log d + 10.0 log r

---------------------------------------------------------------------

The orbital elements are published on M.P.E.C. 2016-U66.
The magnitudes graphs are made with Comet for Windows.

---------------------------------------------------------------------

Copyright(C) Seiichi Yoshida (comet@aerith.net). All rights reserved.